Location: Days
(41.3591°N, 106.7339°W)
Time: 12:50:42
(UTC+00:00)

Tiangong - Visible Passes

Search period start: 24 January 2022 00:00
Search period end: 03 February 2022 00:00
Orbit: 383 x 386 km, 41.5° (Epoch: 23 January)

Date Brightness Start Highest point End Pass type
(mag) Time Alt. Az. Time Alt. Az. Time Alt. Az.
26 Jan 3.9 02:26:33 10° SSW 02:27:06 13° SSW 02:27:06 13° SSW visible
27 Jan 3.1 01:27:35 10° SSW 01:29:42 17° SSE 01:30:26 15° SE visible
28 Jan 2.1 02:03:27 10° SW 02:05:55 37° S 02:05:55 37° S visible
29 Jan 2.5 01:04:03 10° SW 01:06:47 27° SSE 01:09:06 13° E visible
29 Jan 3.8 02:40:13 10° WSW 02:41:18 20° WSW 02:41:18 20° WSW visible
30 Jan 1.2 01:40:28 10° WSW 01:43:36 61° SSE 01:44:26 42° ESE visible
31 Jan 2.1 02:17:22 10° W 02:19:42 45° W 02:19:42 45° W visible
01 Feb 1.0 01:17:30 10° WSW 01:20:40 81° S 01:22:44 20° E visible
01 Feb 4.3 02:54:20 10° W 02:54:56 15° W 02:54:56 15° W visible
02 Feb 0.9 01:54:26 10° W 01:57:37 86° N 01:57:57 68° E visible
